Location: Boca do Mato
(22.9085°S, 43.2930°W)
Time: 01:14:03
(UTC+00:00)

ADEOS Rocket - Visible Passes

Search period start: 24 October 2020 00:00
Search period end: 03 November 2020 00:00
Orbit: 858 x 1307 km, 98.7° (Epoch: 23 October)

Date Brightness Start Highest point End Pass type
(mag) Time Alt. Az. Time Alt. Az. Time Alt. Az.
24 Oct 3.1 07:40:34 10° SSE 07:47:10 88° ENE 07:53:02 10° NNW visible
25 Oct 4.9 06:52:28 10° SE 06:57:58 30° E 07:03:00 10° NNE visible
27 Oct 4.5 06:59:43 10° SSE 07:05:27 36° E 07:10:41 10° NNE visible
28 Oct 5.9 06:14:52 10° E 06:15:58 10° E 06:17:03 10° ENE visible
29 Oct 4.2 07:07:02 10° SSE 07:12:55 43° E 07:18:17 10° N visible
30 Oct 5.6 06:20:48 10° ESE 06:23:29 13° E 06:26:05 10° ENE visible
31 Oct 3.8 07:14:22 10° SSE 07:20:22 51° E 07:25:50 10° N visible
01 Nov 5.5 06:27:27 10° ESE 06:31:00 16° E 06:34:23 10° NE visible
02 Nov 3.4 07:21:46 10° SSE 07:27:48 62° E 07:33:18 10° N visible
